Aérodrome :
LOGIN :

S'inscrire | Disclaimer

   EN    FR    IT 

 










Légende :    VFR   VFR Marginal   IFR   IFR Intensif   IFR Très Intensif
Visi : 
Plafond : 
>= 8 km
>= 3000ft
5 à 8 km
1000 à 3000 ft
1500m à 5 km
500 à 1000 ft
800 à 1500m
200 à 500 ft
< 800m
< 200 ft
Symboles :   Orages  Brouillard  Fortes neiges  Fortes précipitations  Vent > 20 kt
SIGMETs :   Divers  Orages  Givrage  Turbulence  Onde Orograph.  Cendres Volcan.







- Altitude de l'aérodrome : 277 ft
- Code IATA : JER
- Voir les cartes d'approche


EGJJ - Jersey

DERNIER METAR :
  • 191820Z 28004KT 9999 FEW020 13/10 Q1023

METARs EXPIRÉS :
  • 191750Z AUTO 28006KT CAVOK 14/10 Q1023
  • 191720Z 29006KT 9999 FEW022 15/10 Q1023
  • 191650Z 28008KT 250V310 9999 FEW022 16/11 Q1023
  • 191620Z 28008KT 9999 FEW021 16/11 Q1023
  • 191550Z AUTO 28008KT CAVOK 16/11 Q1023

TAF TAF EGJJ
Valide du 19 à 18h jusqu'au 20 à 03h UTC


191702Z 1918/2003 28008KT 9999 FEW020
TEMPO 1921/2003 BKN019
BECMG 2000/2003 22011KT
ATIS : +44 1534 498 073
Pas de NOTAMs connus pour ce terrain.



MET'MAP, la Météo Aéronautique d'un coup d'oeil ! - Copyright ORBIFLY Décembre 2007 - Disclaimer

ORBIFLY MET'MAP TEAM :

Programmation & Développement : Alexandra Zaïnal
Conception & Développement : Baudouin d'Aumeries
Co-Programmation & Développement : Marc-Olivier Méhu
Soutien technique & logistique : Manuel Goepfert

Contact : metmap@orbifly.com




SOURCES & CREDITS :

   NOAA